Terminal Aerodrome Forecast
Issued by NWS Oklahoma City, OK

Home | Current Version | Previous Version | Text Only | Print | Product List | Glossary On
Versions: 1 2 3 4 5 6 7 8 9 10 11 12
000
FTUS44 KOUN 200654 RRA
TAFOUN
TAF
KOUN 200654Z 2007/2106 16008KT P6SM BKN150
     FM201400 18012KT P6SM BKN050
     FM201800 17010KT P6SM VCSH FEW025 BKN050=

USA.gov is the U.S. government's official web portal to all federal, state and local government web resources and services.